Вернуться в каталог

COSMOS 2277

GLONASS

АктивенНавигацияMEO
NORAD 23044·PAYLOAD·🇷🇺 Russia

Запущен Apr 11, 1994 с Baikonur Cosmodrome

Loading…

Ближайшие Пролёты (ближайшие 24 часа)

TLE

СвежийSource: Space-Track

Эпоха: Sep 13, 2026, 09:42 UTC

1 23044U 94021B   26256.40426505 -.00000031  00000-0  00000-0 0  9991
2 23044  63.9199 297.5141 0059410 209.6493 218.5550  2.13104691252296

Отслеживайте COSMOS 2277 в реальном времени с AllMySat

Download on the App Store